Butte, MT

8:33 PM MST on February 25, 2017 (GMT -0700)
Mooney

Weather History for KBTM - November, 2010

Change the Weather History Date:

Friday, November 26, 2010

  Actual Average Record
Temperature  
Mean Temperature 16 °F 22 °F  
Max Temperature 29 °F 34 °F 64 °F (1917)
Min Temperature 2 °F 10 °F -22 °F (1952)
Degree Days  
Heating Degree Days 49 43  
Month to date heating degree days 1003 942  
Since 1 July heating degree days 2316 2313  
Cooling Degree Days 0 0  
Month to date cooling degree days 0 0  
Year to date cooling degree days 27 81  
Moisture  
Dew Point 7 °F    
Average Humidity 72    
Maximum Humidity 91    
Minimum Humidity 53    
Precipitation  
Precipitation 0.00 in 0.01 in 0.79 in (1994)
Month to date precipitation 0.50 0.52  
Year to date precipitation 14.74 12.18  
Sea Level Pressure  
Sea Level Pressure 30.26 in    
Wind  
Wind Speed 3 mph (SSE)    
Max Wind Speed 9 mph    
Max Gust Speed 13 mph    
Visibility 10 miles    
Events      
T = Trace of Precipitation, MM = Missing Value Source: NWS Daily Summary

Daily Weather History Graph

Daily Weather History Graph

Search for Another Location

Airport or City:

Trip Planner

Search our weather history database for the weather conditions in past years. The results will help you decide how hot, cold, wet, or windy it might be!

Date:

Astronomy

Nov. 26, 2010 Rise Set
Actual Time 7:45 AM MST 4:49 PM MST
Civil Twilight 7:11 AM MST 5:22 PM MST
Nautical Twilight 6:34 AM MST 5:59 PM MST
Astronomical Twilight 5:59 AM MST 6:35 PM MST
Moon 10:08 PM MST 11:49 AM MST
Length of Visible Light 10h 10m
Length of Day
9h 03m
Waning Gibbous, 73% of the Moon is Illuminated
Nov 26
Waning Gibbous
Nov 28
Last Quarter
Dec 5
New
Dec 13
First Quarter
Dec 21
Full

Hourly Weather History & Observations

Time (MST) Temp. Windchill Dew Point Humidity Pressure Visibility Wind Dir Wind Speed Gust Speed Precip Events Conditions
12:53 AM 8.1 °F - 3.0 °F 80% 30.36 in 10.0 mi Calm Calm - N/A   Mostly Cloudy
1:53 AM 3.9 °F -3.4 °F 1.0 °F 88% 30.36 in 10.0 mi SSE 3.5 mph - N/A   Clear
2:53 AM 3.9 °F -9.4 °F -0.0 °F 84% 30.38 in 10.0 mi South 8.1 mph - N/A   Clear
3:53 AM 3.9 °F -6.9 °F -0.0 °F 84% 30.40 in 10.0 mi SE 5.8 mph - N/A   Clear
4:53 AM 3.2 °F -4.2 °F -0.4 °F 85% 30.13 in 10.0 mi ESE 3.5 mph - N/A   Clear
5:53 AM 5.0 °F - 1.0 °F 84% 30.37 in 10.0 mi Calm Calm - N/A   Clear
6:53 AM 7.0 °F - 3.0 °F 84% 30.37 in 10.0 mi Calm Calm - N/A   Clear
7:53 AM 5.0 °F -4.1 °F 1.4 °F 85% 30.10 in 10.0 mi SSE 4.6 mph - N/A   Clear
8:53 AM 8.1 °F 1.4 °F 3.0 °F 80% 30.36 in 10.0 mi West 3.5 mph - N/A   Mostly Cloudy
9:53 AM 10.0 °F 3.6 °F 6.1 °F 84% 30.33 in 10.0 mi SSW 3.5 mph - N/A   Clear
10:53 AM 19.0 °F 13.9 °F 10.0 °F 68% 30.30 in 10.0 mi NE 3.5 mph - N/A   Partly Cloudy
11:53 AM 21.9 °F - 12.0 °F 66% 30.26 in 10.0 mi Calm Calm - N/A   Mostly Cloudy
12:53 PM 21.0 °F 14.6 °F 12.9 °F 71% 30.24 in 10.0 mi South 4.6 mph - N/A   Mostly Cloudy
1:53 PM 25.0 °F - 14.0 °F 63% 30.22 in 10.0 mi Calm Calm - N/A   Mostly Cloudy
2:53 PM 28.9 °F 23.9 °F 14.0 °F 54% 30.19 in 10.0 mi Variable 4.6 mph - N/A   Partly Cloudy
3:53 PM 27.0 °F 18.7 °F 14.0 °F 58% 30.19 in 10.0 mi WNW 8.1 mph - N/A   Clear
4:53 PM 24.1 °F 16.0 °F 12.9 °F 62% 30.22 in 10.0 mi West 6.9 mph - N/A   Partly Cloudy
5:53 PM 17.1 °F 11.7 °F 10.0 °F 74% 30.23 in 10.0 mi ESE 3.5 mph - N/A   Clear
6:53 PM 15.1 °F 7.7 °F 9.0 °F 77% 30.22 in 10.0 mi SSE 4.6 mph - N/A   Clear
7:53 PM 16.0 °F - 12.0 °F 84% 30.22 in 10.0 mi Calm Calm - N/A   Overcast
8:53 PM 12.9 °F 6.9 °F 8.1 °F 81% 30.20 in 10.0 mi East 3.5 mph - N/A   Clear
9:53 PM 8.1 °F - 5.0 °F 87% 30.22 in 10.0 mi Calm Calm - N/A   Clear
10:53 PM 7.0 °F -1.7 °F 3.0 °F 84% 30.17 in 10.0 mi SSW 4.6 mph - N/A   Clear
11:53 PM 9.0 °F - 5.0 °F 84% 30.12 in 10.0 mi Calm Calm - N/A   Clear